Iowa City, IA

12:18 AM CDT on May 31, 2020 (GMT -0500)
Iowa City Municipal

Weather History for KIOW - September, 2019

Change the Weather History Date:

Sunday, September 22, 2019

  Actual Average Record
Temperature  
Mean Temperature 66 °F 62 °F  
Max Temperature 74 °F 74 °F 94 °F (2017)
Min Temperature 58 °F 50 °F 31 °F (1953)
Degree Days  
Heating Degree Days 0 5  
Month to date heating degree days 0 52  
Since 1 July heating degree days 0 60  
Cooling Degree Days 1 1  
Month to date cooling degree days 174 70  
Year to date cooling degree days 1129 892  
Growing Degree Days 18 (Base 50)    
Moisture  
Dew Point 66 °F    
Average Humidity 85    
Maximum Humidity 90    
Minimum Humidity 79    
Precipitation  
Precipitation 0.61 in 0.10 in 2.12 in (2000)
Month to date precipitation 5.25 2.59  
Year to date precipitation 34.73 28.74  
Sea Level Pressure  
Sea Level Pressure 29.88 in    
Wind  
Wind Speed 8 mph (SW)    
Max Wind Speed 23 mph    
Max Gust Speed 33 mph    
Visibility 9 miles    
Events Rain , Thunderstorm    
T = Trace of Precipitation, MM = Missing Value Source: NWS Daily Summary

Daily Weather History Graph

Daily Weather History Graph

Search for Another Location

Airport or City:

Astronomy

Sep. 22, 2019 Rise Set
Actual Time 6:53 AM CDT 7:03 PM CDT
Civil Twilight 6:25 AM CDT 7:31 PM CDT
Nautical Twilight 5:53 AM CDT 8:03 PM CDT
Astronomical Twilight 5:20 AM CDT 8:36 PM CDT
Moon No Moon Rise 3:04 PM CDT (9/22)
Length of Visible Light 13h 05m
Length of Day
12h 10m
Last Quarter, 44% of the Moon is Illuminated
Sep 22
Last Quarter
Sep 28
New
Oct 5
First Quarter
Oct 13
Full
Oct 21
Last Quarter

Hourly Weather History & Observations

Time (CDT) Temp. Dew Point Humidity Pressure Visibility Wind Dir Wind Speed Gust Speed Precip Events Conditions
12:52 AM 73.9 °F 70.0 °F 87% 29.92 in 10.0 mi South 5.8 mph - N/A   Overcast
1:52 AM 73.9 °F 70.0 °F 87% 29.88 in 10.0 mi SSE 6.9 mph - N/A   Overcast
2:52 AM 73.9 °F 70.0 °F 87% 29.87 in 10.0 mi South 6.9 mph - 0.00 in Rain Light Rain
3:03 AM 73.9 °F 70.0 °F 87% 29.87 in 10.0 mi SSE 8.1 mph - 0.00 in Thunderstorm Overcast
3:15 AM 73.9 °F 70.0 °F 87% 29.87 in 6.0 mi South 11.5 mph - 0.03 in Rain , Thunderstorm Light Rain
3:42 AM 73.9 °F 70.0 °F 87% 29.87 in 10.0 mi South 11.5 mph 20.7 mph 0.05 in Rain Light Rain
3:52 AM 73.9 °F 70.0 °F 87% 29.86 in 10.0 mi South 12.7 mph - 0.05 in Rain Light Rain
4:25 AM 73.0 °F 70.0 °F 90% 29.87 in 7.0 mi SSW 10.4 mph - 0.06 in Rain Rain
4:52 AM 73.0 °F 70.0 °F 90% 29.86 in 5.0 mi SW 10.4 mph - 0.14 in Rain Rain
4:57 AM 72.0 °F 69.1 °F 91% 29.87 in 5.0 mi WSW 13.8 mph 20.7 mph 0.03 in Rain Rain
5:03 AM 71.1 °F 68.0 °F 90% 29.88 in 3.0 mi WSW 13.8 mph - 0.06 in Rain Heavy Rain
5:20 AM 71.1 °F 68.0 °F 90% 29.87 in 10.0 mi SW 6.9 mph - 0.10 in   Overcast
5:31 AM 70.0 °F 68.0 °F 93% 29.87 in 10.0 mi SW 9.2 mph - 0.10 in   Overcast
5:52 AM 70.0 °F 68.0 °F 93% 29.86 in 10.0 mi West 6.9 mph - 0.10 in   Overcast
6:29 AM 70.0 °F 66.9 °F 90% 29.88 in 10.0 mi NW 11.5 mph 20.7 mph 0.01 in Rain Light Rain
6:38 AM 70.0 °F 66.9 °F 90% 29.89 in 10.0 mi WNW 10.4 mph - 0.01 in Rain Light Rain
6:52 AM 69.1 °F 66.0 °F 90% 29.88 in 10.0 mi WNW 11.5 mph - 0.02 in Rain Light Rain
7:52 AM 69.1 °F 66.0 °F 90% 29.86 in 10.0 mi SSE 3.5 mph - 0.01 in Rain Light Rain
8:20 AM 69.1 °F 66.0 °F 90% 29.89 in 10.0 mi SSW 4.6 mph - 0.01 in Rain Light Rain
8:43 AM 69.1 °F 66.9 °F 93% 29.89 in 10.0 mi South 4.6 mph - 0.01 in Rain Light Rain
8:52 AM 70.0 °F 66.9 °F 90% 29.88 in 10.0 mi SSW 5.8 mph - 0.02 in Rain Light Rain
9:05 AM 69.1 °F 66.9 °F 93% 29.89 in 10.0 mi SSW 6.9 mph - 0.00 in Rain Light Rain
9:52 AM 69.1 °F 66.0 °F 90% 29.88 in 10.0 mi SSW 8.1 mph - 0.01 in Rain Light Rain
10:52 AM 69.1 °F 66.0 °F 90% 29.88 in 7.0 mi SW 4.6 mph - 0.04 in Rain Light Rain
11:08 AM 69.1 °F 66.0 °F 90% 29.90 in 10.0 mi SW 5.8 mph - 0.01 in Rain Light Rain
11:42 AM 69.1 °F 66.0 °F 90% 29.90 in 9.0 mi SW 5.8 mph - 0.02 in Rain Light Rain
11:52 AM 69.1 °F 66.0 °F 90% 29.89 in 8.0 mi WSW 8.1 mph - 0.03 in Rain Light Rain
12:06 PM 69.1 °F 64.9 °F 87% 29.90 in 5.0 mi SW 5.8 mph - 0.02 in Rain Light Rain
12:40 PM 69.1 °F 66.0 °F 90% 29.89 in 6.0 mi West 4.6 mph - 0.07 in Rain Rain
12:52 PM 69.1 °F 66.0 °F 90% 29.88 in 9.0 mi West 6.9 mph - 0.07 in Rain Light Rain
12:59 PM 69.1 °F 66.0 °F 90% 29.89 in 5.0 mi WNW 5.8 mph - 0.02 in Rain Rain
1:19 PM 69.1 °F 66.0 °F 90% 29.88 in 5.0 mi WNW 6.9 mph - 0.04 in Rain Rain
1:52 PM 69.1 °F 66.0 °F 90% 29.81 in 8.0 mi SE 10.4 mph - 0.08 in Rain Light Rain
2:17 PM 69.1 °F 66.9 °F 93% 29.84 in 10.0 mi East 3.5 mph - 0.01 in Rain Light Rain
2:20 PM 69.1 °F 66.0 °F 90% 29.83 in 10.0 mi SE 8.1 mph - 0.01 in Rain Light Rain
2:28 PM 69.1 °F 66.0 °F 90% 29.85 in 10.0 mi SSE 5.8 mph - 0.01 in Rain Light Rain
2:52 PM 70.0 °F 64.9 °F 84% 29.83 in 10.0 mi South 4.6 mph - 0.01 in   Overcast
3:35 PM 71.1 °F 64.0 °F 78% 29.83 in 10.0 mi SW 3.5 mph - N/A   Partly Cloudy
3:52 PM 71.1 °F 64.0 °F 78% 29.82 in 10.0 mi SSW 3.5 mph - N/A   Scattered Clouds
4:02 PM 71.1 °F 64.0 °F 78% 29.84 in 10.0 mi Calm Calm - N/A   Mostly Cloudy
4:52 PM 72.0 °F 64.0 °F 76% 29.83 in 10.0 mi WSW 5.8 mph - N/A   Overcast
5:06 PM 72.0 °F 64.0 °F 76% 29.83 in 10.0 mi West 3.5 mph - N/A   Mostly Cloudy
5:36 PM 73.0 °F 64.0 °F 73% 29.84 in 10.0 mi WSW 3.5 mph - N/A   Mostly Cloudy
5:52 PM 72.0 °F 64.0 °F 76% 29.84 in 10.0 mi West 6.9 mph - N/A   Scattered Clouds
6:52 PM 71.1 °F 64.0 °F 78% 29.86 in 10.0 mi WSW 4.6 mph - N/A   Overcast
7:17 PM 69.1 °F 64.9 °F 87% 29.87 in 9.0 mi West 8.1 mph - 0.01 in Rain Light Rain
7:25 PM 69.1 °F 64.9 °F 87% 29.88 in 10.0 mi West 6.9 mph - 0.01 in   Overcast
7:34 PM 69.1 °F 64.9 °F 87% 29.88 in 10.0 mi West 9.2 mph - 0.01 in   Overcast
7:52 PM 69.1 °F 64.9 °F 87% 29.88 in 10.0 mi West 9.2 mph - 0.01 in   Overcast
8:52 PM 64.0 °F 60.1 °F 87% 29.91 in 10.0 mi NNW 10.4 mph - 0.01 in   Overcast
9:26 PM 64.0 °F 60.1 °F 87% 29.93 in 10.0 mi NNW 9.2 mph - 0.01 in   Overcast
9:37 PM 64.0 °F 60.1 °F 87% 29.94 in 10.0 mi NNW 10.4 mph - 0.01 in   Overcast
9:52 PM 64.0 °F 60.1 °F 87% 29.93 in 10.0 mi NNW 8.1 mph - 0.01 in   Overcast
10:52 PM 62.1 °F 57.9 °F 86% 29.95 in 10.0 mi NW 8.1 mph - N/A   Clear
11:52 PM 60.1 °F 57.0 °F 90% 29.96 in 10.0 mi WNW 5.8 mph - N/A   Clear